Tracking 28091 objects as of 30-Sep-2023
HD Live streaming from Space Station
objects crossing your sky now

INSAT 3B

Track INSAT 3B now!
INSAT 3B is classified as:


NORAD ID: 26108
Int'l Code: 2000-016B
Perigee: 35,938.8 km
Apogee: 35,995.6 km
Inclination: 8.8 °
Period: 1,445.0 minutes
Semi major axis: 42338 km
RCS: 5.0119 m2 (large)
Launch date: March 21, 2000
Source: India (IND)
Launch site: FRENCH GUIANA (FRGUI)

Voice, data and fax transmissions.
Your satellite tracking list
Your tracking list is empty




NASA's NSSDC Master Catalog

Two Line Element Set (TLE):
1 26108U 00016B   23272.55026369  .00000085  00000-0  00000-0 0  9999
2 26108   8.7932  53.6318 0006706 181.4099 200.9876  0.99656212 41552
Source of the keplerian elements: AFSPC